When you browse on this site, cookies collect data to enhance your experience and personalize the content and advertising you see.
Visit our Privacy Policy to learn more. By continuing to use the site, you agree to this use of cookies and data.
  • In Spain
  • List of Countries
  • For 7 days
  • Water Temperature
  • Satellite Maps
  • Weather Map
  • Weather Widgets
  • user-avatar
    Login

    Hourly Weather My Tho

    Today, 19 February, Tuesday

    Time Temperature Precipitation Wind Pressure Humidity
    00:00 +25°C° 0 mm 1 mps 759 mmHg 93%
    01:00 +25°C° 0 mm 1 mps 759 mmHg 94%
    02:00 +25°C° 0 mm 1 mps 759 mmHg 94%
    03:00 +25°C° 0 mm 1 mps 759 mmHg 95%
    04:00 +25°C° 0 mm 1 mps 759 mmHg 95%
    05:00 +25°C° 0 mm 1 mps 759 mmHg 93%
    06:00 +26°C° 0 mm 1 mps 759 mmHg 90%
    07:00 +26°C° 0 mm 1 mps 759 mmHg 88%
    08:00 +28°C° 0 mm 2 mps 760 mmHg 77%
    09:00 +30°C° 0 mm 2 mps 760 mmHg 67%
    10:00 +33°C° 0 mm 3 mps 760 mmHg 57%
    11:00 +34°C° 0 mm 3 mps 760 mmHg 51%
    12:00 +36°C° 0 mm 4 mps 759 mmHg 46%
    13:00 +37°C° 0 mm 4 mps 759 mmHg 41%
    14:00 +36°C° 0 mm 4 mps 758 mmHg 43%
    15:00 +36°C° 0 mm 4 mps 758 mmHg 44%
    16:00 +35°C° 0 mm 4 mps 757 mmHg 46%
    17:00 +33°C° 0 mm 4 mps 758 mmHg 55%
    18:00 +30°C° 0 mm 3 mps 758 mmHg 64%
    19:00 +28°C° 0 mm 3 mps 758 mmHg 74%
    20:00 +27°C° 0 mm 2 mps 759 mmHg 78%
    21:00 +27°C° 0 mm 2 mps 760 mmHg 83%
    22:00 +26°C° 0 mm 2 mps 760 mmHg 87%
    23:00 +26°C° 0 mm 2 mps 760 mmHg 89%

    Tomorrow, 20 February, Wednesday

    Time Temperature Precipitation Wind Pressure Humidity
    00:00 +26°C° 0 mm 1 mps 760 mmHg 90%
    01:00 +26°C° 0 mm 1 mps 760 mmHg 91%
    02:00 +26°C° 0 mm 1 mps 760 mmHg 91%
    03:00 +26°C° 0 mm 1 mps 760 mmHg 91%
    04:00 +26°C° 0 mm 1 mps 759 mmHg 91%
    05:00 +26°C° 0 mm 1 mps 760 mmHg 89%
    06:00 +27°C° 0 mm 1 mps 760 mmHg 87%
    07:00 +27°C° 0 mm 2 mps 760 mmHg 85%
    08:00 +29°C° 0 mm 2 mps 761 mmHg 73%
    09:00 +33°C° 0 mm 3 mps 761 mmHg 62%
    10:00 +35°C° 0 mm 4 mps 761 mmHg 51%
    11:00 +36°C° 0 mm 4 mps 760 mmHg 45%
    12:00 +37°C° 0 mm 4 mps 760 mmHg 40%
    13:00 +38°C° 0 mm 4 mps 759 mmHg 35%
    14:00 +37°C° 0 mm 4 mps 759 mmHg 38%
    15:00 +37°C° 0 mm 4 mps 758 mmHg 40%
    16:00 +36°C° 0 mm 5 mps 757 mmHg 43%
    17:00 +34°C° 0 mm 4 mps 758 mmHg 53%
    18:00 +32°C° 0 mm 4 mps 758 mmHg 64%
    19:00 +29°C° 0 mm 3 mps 759 mmHg 74%
    20:00 +29°C° 0 mm 3 mps 759 mmHg 75%
    21:00 +28°C° 0 mm 3 mps 760 mmHg 77%
    22:00 +28°C° 0 mm 3 mps 760 mmHg 78%
    23:00 +28°C° 0 mm 3 mps 760 mmHg 79%

    Day after tomorrow, 21 February, Thursday

    Time Temperature Precipitation Wind Pressure Humidity
    00:00 +28°C° 0 mm 3 mps 760 mmHg 79%
    01:00 +28°C° 0 mm 2 mps 760 mmHg 79%
    02:00 +28°C° 0 mm 2 mps 759 mmHg 80%
    03:00 +27°C° 0 mm 2 mps 759 mmHg 81%
    04:00 +27°C° 0 mm 2 mps 759 mmHg 82%
    05:00 +28°C° 0 mm 2 mps 759 mmHg 81%
    06:00 +28°C° 0 mm 3 mps 759 mmHg 80%
    07:00 +28°C° 0 mm 3 mps 760 mmHg 79%
    08:00 +30°C° 0 mm 3 mps 760 mmHg 70%
    09:00 +33°C° 0 mm 3 mps 761 mmHg 61%
    10:00 +35°C° 0 mm 4 mps 761 mmHg 53%
    11:00 +36°C° 0 mm 4 mps 760 mmHg 50%
    12:00 +36°C° 0 mm 3 mps 759 mmHg 47%
    13:00 +37°C° 0 mm 3 mps 758 mmHg 44%
    14:00 +37°C° 0 mm 3 mps 758 mmHg 45%
    15:00 +36°C° 0 mm 3 mps 757 mmHg 46%
    16:00 +36°C° 0 mm 3 mps 756 mmHg 47%
    17:00 +34°C° 0 mm 3 mps 757 mmHg 55%
    18:00 +31°C° 0 mm 3 mps 757 mmHg 63%
    19:00 +29°C° 0 mm 3 mps 758 mmHg 70%
    20:00 +29°C° 0 mm 3 mps 758 mmHg 73%
    21:00 +28°C° 0 mm 3 mps 759 mmHg 75%
    22:00 +28°C° 0 mm 3 mps 759 mmHg 78%
    23:00 +28°C° 0 mm 3 mps 759 mmHg 79%

    22 February, Friday

    Time Temperature Precipitation Wind Pressure Humidity
    00:00 +28°C° 0 mm 3 mps 759 mmHg 80%
    01:00 +28°C° 0 mm 2 mps 758 mmHg 81%
    02:00 +27°C° 0 mm 2 mps 758 mmHg 81%
    03:00 +27°C° 0 mm 2 mps 758 mmHg 82%
    04:00 +27°C° 0 mm 2 mps 757 mmHg 83%
    05:00 +27°C° 0 mm 2 mps 758 mmHg 81%
    06:00 +28°C° 0 mm 2 mps 758 mmHg 80%
    07:00 +28°C° 0 mm 2 mps 759 mmHg 79%
    08:00 +29°C° 0 mm 2 mps 759 mmHg 72%
    09:00 +31°C° 0 mm 3 mps 760 mmHg 65%
    10:00 +33°C° 0 mm 4 mps 760 mmHg 58%
    11:00 +34°C° 0 mm 4 mps 759 mmHg 56%
    12:00 +35°C° 0 mm 4 mps 758 mmHg 53%
    13:00 +35°C° 0 mm 4 mps 758 mmHg 50%
    14:00 +35°C° 0 mm 4 mps 757 mmHg 50%
    15:00 +35°C° 0 mm 4 mps 757 mmHg 50%
    16:00 +35°C° 0 mm 4 mps 756 mmHg 50%
    17:00 +33°C° 0 mm 3 mps 757 mmHg 56%
    18:00 +30°C° 0 mm 3 mps 757 mmHg 63%
    19:00 +28°C° 0 mm 3 mps 758 mmHg 69%
    20:00 +28°C° 0 mm 2 mps 758 mmHg 73%
    21:00 +28°C° 0 mm 2 mps 759 mmHg 76%
    22:00 +27°C° 0 mm 2 mps 759 mmHg 80%
    23:00 +27°C° 0 mm 2 mps 759 mmHg 81%

    23 February, Saturday

    Time Temperature Precipitation Wind Pressure Humidity
    00:00 +27°C° 0 mm 2 mps 759 mmHg 82%
    01:00 +27°C° 0 mm 2 mps 758 mmHg 83%
    02:00 +27°C° 0 mm 2 mps 758 mmHg 83%
    03:00 +27°C° 0 mm 2 mps 758 mmHg 83%
    04:00 +26°C° 0 mm 2 mps 758 mmHg 82%
    05:00 +27°C° 0 mm 2 mps 758 mmHg 80%
    06:00 +27°C° 0 mm 2 mps 759 mmHg 78%
    07:00 +27°C° 0 mm 3 mps 759 mmHg 76%
    08:00 +29°C° 0 mm 3 mps 759 mmHg 68%
    09:00 +32°C° 0 mm 4 mps 760 mmHg 60%
    10:00 +34°C° 0 mm 4 mps 760 mmHg 52%
    11:00 +35°C° 0 mm 4 mps 759 mmHg 49%
    12:00 +36°C° 0 mm 4 mps 758 mmHg 46%
    13:00 +36°C° 0 mm 4 mps 757 mmHg 43%
    14:00 +36°C° 0 mm 4 mps 756 mmHg 44%
    15:00 +35°C° 0 mm 4 mps 756 mmHg 44%
    16:00 +35°C° 0 mm 4 mps 755 mmHg 45%
    17:00 +33°C° 0 mm 4 mps 756 mmHg 53%
    18:00 +30°C° 0 mm 3 mps 756 mmHg 61%
    19:00 +28°C° 0 mm 3 mps 757 mmHg 69%
    20:00 +27°C° 0 mm 2 mps 757 mmHg 73%
    21:00 +27°C° 0 mm 2 mps 758 mmHg 76%
    22:00 +27°C° 0 mm 2 mps 758 mmHg 80%
    23:00 +27°C° 0 mm 2 mps 758 mmHg 81%

    24 February, Sunday

    Time Temperature Precipitation Wind Pressure Humidity
    00:00 +26°C° 0 mm 2 mps 758 mmHg 83%
    01:00 +26°C° 0 mm 2 mps 758 mmHg 84%
    02:00 +26°C° 0 mm 2 mps 758 mmHg 85%
    03:00 +26°C° 0 mm 2 mps 758 mmHg 85%
    04:00 +26°C° 0 mm 2 mps 757 mmHg 85%
    05:00 +26°C° 0 mm 2 mps 758 mmHg 83%
    06:00 +27°C° 0 mm 2 mps 758 mmHg 81%
    07:00 +27°C° 0 mm 2 mps 759 mmHg 79%
    08:00 +29°C° 0 mm 3 mps 759 mmHg 70%
    09:00 +32°C° 0 mm 4 mps 759 mmHg 61%
    10:00 +34°C° 0 mm 4 mps 759 mmHg 51%
    11:00 +35°C° 0 mm 4 mps 758 mmHg 48%
    12:00 +36°C° 0 mm 4 mps 757 mmHg 44%
    13:00 +36°C° 0 mm 4 mps 756 mmHg 41%
    14:00 +36°C° 0 mm 4 mps 756 mmHg 41%
    15:00 +35°C° 0 mm 4 mps 755 mmHg 42%
    16:00 +35°C° 0 mm 4 mps 755 mmHg 42%
    17:00 +33°C° 0 mm 4 mps 755 mmHg 51%
    18:00 +30°C° 0 mm 3 mps 756 mmHg 59%
    19:00 +28°C° 0 mm 3 mps 757 mmHg 68%
    20:00 +27°C° 0 mm 2 mps 757 mmHg 72%
    21:00 +27°C° 0 mm 2 mps 757 mmHg 75%
    22:00 +26°C° 0 mm 2 mps 758 mmHg 79%
    23:00 +26°C° 0 mm 2 mps 758 mmHg 80%
    Show more